FW1695 Weather Reports


time (UTC)temp
F
wind
direction
speed
knots
gust
knots
rain 1hr
in
rain 24hr
in
rain mn
in
humidity
%
barometer
mb
20260505061537 74 342 2.6 11.3 0.00 0.00 0.00 39 1008.6
20260505061035 75 51 1.7 7.0 0.00 0.00 0.00 38 1008.6
20260505060540 75 272 2.6 6.1 0.00 0.00 0.00 38 1008.7
20260505060044 75 307 0.9 7.0 0.00 0.00 0.00 37 1008.7
20260505055535 75 74 2.6 7.8 0.00 0.00 0.00 37 1008.8
20260505055033 75 349 1.7 7.8 0.00 0.00 0.00 36 1008.8
20260505054534 75 311 0.9 7.0 0.00 0.00 0.00 35 1008.8
20260505054033 76 52 1.7 7.8 0.00 0.00 0.00 34 1008.8
20260505053632 76 305 2.6 7.8 0.00 0.00 0.00 33 1008.8
20260505053032 76 319 1.7 7.8 0.00 0.00 0.00 32 1008.8
20260505052531 75 335 2.6 7.8 0.00 0.00 0.00 32 1008.9
20260505052032 75 314 1.7 6.1 0.00 0.00 0.00 32 1008.9
20260505051533 75 330 0.9 3.5 0.00 0.00 0.00 33 1008.9
20260505051032 75 287 0.0 0.9 0.00 0.00 0.00 34 1009.0
20260505050532 75 287 0.0 1.7 0.00 0.00 0.00 34 1009.0
20260505041529 75 290 0.0 0.9 0.00 0.00 0.00 32 1008.6
20260505041029 75 292 0.0 0.9 0.00 0.00 0.00 32 1008.5
20260505040529 75 290 0.0 0.9 0.00 0.00 0.00 32 1008.5
20260505040028 75 290 0.0 0.9 0.00 0.00 0.00 32 1008.4
20260505035529 75 290 0.0 0.0 0.00 0.00 0.00 32 1008.4
20260505035029 75 290 0.0 0.0 0.00 0.00 0.00 33 1008.3
20260505034526 76 290 0.0 0.0 0.00 0.00 0.00 33 1008.2
20260505034027 76 290 0.0 0.0 0.00 0.00 0.00 32 1008.1
20260505033527 76 291 0.0 0.0 0.00 0.00 0.00 32 1008.1
20260505033027 77 291 0.0 0.9 0.00 0.00 0.00 32 1007.9
20260505032526 77 291 0.0 0.9 0.00 0.00 0.00 32 1007.9
20260505032026 77 292 0.0 0.9 0.00 0.00 0.00 32 1007.7
20260505031525 77 292 0.0 0.9 0.00 0.00 0.00 31 1007.6
20260505031025 78 293 0.0 0.9 0.00 0.00 0.00 31 1007.5
20260505030525 78 293 0.0 0.9 0.00 0.00 0.00 32 1007.5
20260505030025 78 293 0.0 0.9 0.00 0.00 0.00 32 1007.5
20260505025524 78 278 0.0 0.9 0.00 0.00 0.00 32 1007.4
20260505025023 78 278 0.0 0.9 0.00 0.00 0.00 32 1007.3
20260505024525 78 321 0.0 0.0 0.00 0.00 0.00 32 1007.2
20260505024023 78 325 0.0 0.9 0.00 0.00 0.00 33 1007.2
20260505023523 79 328 0.0 0.9 0.00 0.00 0.00 33 1007.0
20260505023025 79 295 0.0 0.0 0.00 0.00 0.00 34 1006.9
20260505022523 79 304 0.0 1.7 0.00 0.00 0.00 34 1006.9
20260505022027 79 300 0.0 3.5 0.00 0.00 0.00 34 1006.7
20260505021528 79 296 0.0 1.7 0.00 0.00 0.00 35 1006.6
20260505021024 79 279 0.0 0.9 0.00 0.00 0.00 35 1006.7
20260505020522 79 257 0.0 0.9 0.00 0.00 0.00 36 1006.6
20260505020022 80 257 0.0 0.9 0.00 0.00 0.00 35 1006.5
20260505015521 80 290 0.0 0.9 0.00 0.00 0.00 35 1006.4
20260505015024 80 289 0.0 0.9 0.00 0.00 0.00 35 1006.3
20260505014521 81 63 0.0 0.0 0.00 0.00 0.00 35 1006.2
20260505014029 81 63 0.0 0.0 0.00 0.00 0.00 34 1006.1
20260505013520 82 72 0.0 0.0 0.00 0.00 0.00 34 1006.1
20260505013021 82 73 0.0 0.0 0.00 0.00 0.00 33 1006.0
20260505012521 83 75 0.0 1.7 0.00 0.00 0.00 33 1005.9
20260505012021 83 76 0.0 1.7 0.00 0.00 0.00 32 1006.0
20260505011524 83 91 0.0 1.7 0.00 0.00 0.00 31 1005.9
20260505011021 84 90 0.0 1.7 0.00 0.00 0.00 31 1005.9
20260505010520 84 134 0.0 0.9 0.00 0.00 0.00 31 1005.8
20260505010020 84 83 0.0 2.6 0.00 0.00 0.00 31 1005.7
20260505005520 85 82 0.0 2.6 0.00 0.00 0.00 30 1005.8
20260505005019 85 77 0.0 0.0 0.00 0.00 0.00 30 1005.8
20260505004524 85 76 0.0 3.5 0.00 0.00 0.00 30 1005.7
20260505004019 86 59 0.0 3.5 0.00 0.00 0.00 30 1005.7
20260505003519 86 51 0.0 3.5 0.00 0.00 0.00 32 1005.7
20260505003019 86 95 0.0 2.6 0.00 0.00 0.00 31 1005.6
20260505002519 87 129 0.0 2.6 0.00 0.00 0.00 31 1005.6
20260505002019 87 155 0.0 2.6 0.00 0.00 0.00 30 1005.7
20260505001519 88 102 0.9 4.3 0.00 0.00 0.00 29 1005.5
20260505001018 89 143 0.0 4.3 0.00 0.00 0.00 29 1005.5
20260505000518 89 90 0.0 3.5 0.00 0.00 0.00 29 1005.6
20260505000024 89 42 0.9 3.5 0.00 0.00 0.00 29 1005.6
20260504235517 88 324 0.0 4.3 0.00 0.00 0.00 29 1005.6
20260504235017 88 94 0.9 4.3 0.00 0.00 0.00 29 1005.7
20260504234517 88 106 0.0 5.2 0.00 0.00 0.00 30 1005.7
20260504234016 88 98 2.6 5.2 0.00 0.00 0.00 31 1005.7
20260504233515 88 136 0.0 5.2 0.00 0.00 0.00 31 1005.8
20260504233016 89 145 0.0 5.2 0.00 0.00 0.00 30 1005.8
20260504232515 89 65 0.9 5.2 0.00 0.00 0.00 31 1005.8
20260504232015 89 112 0.9 4.3 0.00 0.00 0.00 31 1005.8
20260504231514 89 92 0.0 3.5 0.00 0.00 0.00 31 1005.8
20260504231014 89 146 0.0 5.2 0.00 0.00 0.00 31 1005.9
20260504230513 88 58 0.0 6.1 0.00 0.00 0.00 31 1006.0
20260504230014 89 42 0.9 4.3 0.00 0.00 0.00 31 1005.9
20260504225512 89 87 0.0 5.2 0.00 0.00 0.00 30 1005.9
20260504225017 89 92 0.9 7.8 0.00 0.00 0.00 30 1006.0
20260504224513 90 93 0.9 7.8 0.00 0.00 0.00 30 1006.0
20260504224011 89 47 0.9 7.0 0.00 0.00 0.00 30 1006.1
20260504223511 89 198 0.0 3.5 0.00 0.00 0.00 30 1006.1
20260504223010 89 32 0.0 4.3 0.00 0.00 0.00 30 1006.2
20260504222509 89 65 0.0 9.6 0.00 0.00 0.00 29 1006.2
20260504222012 89 24 2.6 9.6 0.00 0.00 0.00 30 1006.3
20260504221508 89 110 0.0 4.3 0.00 0.00 0.00 29 1006.3
20260504221007 89 62 0.0 7.8 0.00 0.00 0.00 29 1006.5
20260504220510 89 232 1.7 7.8 0.00 0.00 0.00 29 1006.5
20260504220005 89 128 0.0 6.1 0.00 0.00 0.00 29 1006.6
20260504215505 90 323 1.7 6.1 0.00 0.00 0.00 28 1006.7
20260504215006 90 84 0.9 5.2 0.00 0.00 0.00 29 1006.8
20260504214506 89 46 0.0 7.0 0.00 0.00 0.00 28 1006.9
20260504214005 89 105 0.9 7.0 0.00 0.00 0.00 28 1007.0
20260504213502 89 37 0.9 10.4 0.00 0.00 0.00 29 1007.0
20260504213002 89 105 3.5 10.4 0.00 0.00 0.00 29 1007.2
20260504212501 89 102 5.2 9.6 0.00 0.00 0.00 29 1007.1
20260504212102 89 354 1.7 7.0 0.00 0.00 0.00 29 1007.2
20260504211600 89 306 0.0 7.8 0.00 0.00 0.00 29 1007.3
20260504211059 89 316 2.6 7.8 0.00 0.00 0.00 29 1007.5
20260504210558 89 341 0.0 6.1 0.00 0.00 0.00 29 1007.6
20260504210059 88 117 2.6 7.0 0.00 0.00 0.00 30 1007.8
20260504205556 89 94 2.6 7.0 0.00 0.00 0.00 30 1007.9
20260504205058 88 75 2.6 7.8 0.00 0.00 0.00 29 1008.0
20260504204554 88 72 1.7 7.8 0.00 0.00 0.00 29 1008.1
20260504204056 89 333 0.0 6.1 0.00 0.00 0.00 28 1008.2
20260504203552 89 60 1.7 6.1 0.00 0.00 0.00 30 1008.4
20260504203056 88 320 0.0 4.3 0.00 0.00 0.00 30 1008.5
20260504202549 88 108 0.9 8.7 0.00 0.00 0.00 30 1008.5
20260504202049 87 94 2.6 8.7 0.00 0.00 0.00 30 1008.6
20260504201601 87 61 1.7 7.0 0.00 0.00 0.00 30 1008.7
20260504201051 87 114 0.9 7.0 0.00 0.00 0.00 31 1008.7
20260504200546 87 77 1.7 7.8 0.00 0.00 0.00 31 1008.8
20260504200047 87 46 2.6 7.8 0.00 0.00 0.00 31 1008.9
20260504195545 86 100 0.9 11.3 0.00 0.00 0.00 30 1009.0
20260504195046 86 128 3.5 11.3 0.00 0.00 0.00 32 1009.0
20260504194549 87 228 0.0 6.1 0.00 0.00 0.00 31 1009.0
20260504194044 87 301 1.7 11.3 0.00 0.00 0.00 32 1009.2
20260504193543 87 304 3.5 11.3 0.00 0.00 0.00 31 1009.3
20260504193043 87 155 0.9 7.8 0.00 0.00 0.00 29 1009.3
20260504192540 86 86 1.7 10.4 0.00 0.00 0.00 30 1009.3
20260504192039 85 56 3.5 10.4 0.00 0.00 0.00 32 1009.4
20260504191543 85 107 0.9 10.4 0.00 0.00 0.00 33 1009.6
20260504191037 85 310 1.7 7.8 0.00 0.00 0.00 32 1009.7
20260504190538 84 99 0.9 7.8 0.00 0.00 0.00 34 1009.7
20260504190034 84 123 1.7 8.7 0.00 0.00 0.00 35 1009.9
20260504185536 84 83 1.7 7.8 0.00 0.00 0.00 36 1010.0
20260504185033 84 316 1.7 10.4 0.00 0.00 0.00 35 1009.9
20260504184538 84 44 3.5 10.4 0.00 0.00 0.00 35 1010.1
20260504184032 83 114 2.6 9.6 0.00 0.00 0.00 35 1010.3
20260504183530 83 99 4.3 12.2 0.00 0.00 0.00 36 1010.4
20260504183030 83 89 4.3 12.2 0.00 0.00 0.00 37 1010.4
20260504182531 84 74 1.7 12.2 0.00 0.00 0.00 36 1010.5
20260504182029 84 117 4.3 12.2 0.00 0.00 0.00 36 1010.6
20260504181532 83 82 2.6 8.7 0.00 0.00 0.00 38 1010.7
20260504181029 83 44 2.6 8.7 0.00 0.00 0.00 39 1010.8
20260504180527 82 45 2.6 13.0 0.00 0.00 0.00 39 1010.9
20260504180024 83 91 5.2 13.0 0.00 0.00 0.00 39 1011.2
20260504175523 83 84 3.5 10.4 0.00 0.00 0.00 40 1011.3
20260504175022 82 102 2.6 9.6 0.00 0.00 0.00 40 1011.4
20260504174522 82 61 3.5 11.3 0.00 0.00 0.00 40 1011.4
20260504174021 82 125 3.5 11.3 0.00 0.00 0.00 42 1011.5
20260504173518 81 18 0.9 6.1 0.00 0.00 0.00 42 1011.5
20260504173021 80 300 0.9 7.0 0.00 0.00 0.00 44 1011.7
20260504172518 0 0.0 0.0 0.00 0.00 0.00 1011.8
20260504172018 0 0.0 0.0 0.00 0.00 0.00 1012.0
20260504171517 0 0.0 0.0 0.00 0.00 0.00 1012.1
20260504171019 0 0.0 0.0 0.00 0.00 0.00 1012.1
20260504170516 0 0.0 0.0 0.00 0.00 0.00 1012.1
20260504151015 0 0.0 0.0 0.00 0.00 0.00 1013.2
20260504150514 0 0.0 0.0 0.00 0.00 0.00 1013.1
20260504141058 0 0.0 0.0 0.00 0.00 0.00 1013.1
20260504140557 0 0.0 0.0 0.00 0.00 0.00 1013.1
20260504140109 0 0.0 0.0 0.00 0.00 0.00 1013.1
20260504130539 0 0.0 0.0 0.00 0.00 0.00 1012.9